Wind_Speed
10 9 8 7 6 6 5 5 5 4 4 3 2 2 2 2 2 2 2 3 3 3 3 4 4 5 5 5 6 6 7 7 7 7 6 6 6 6 6 6 5 5 4
11 10 9 7 7 6 6 5 5 4 3 3 3 2 2 2 2 2 2 2 3 3 3 4 4 4 4 5 5 5 6 7 6 7 7 7 6 7 7 7 7 7 7
12 11 10 8 7 7 6 6 5 5 4 4 3 3 2 2 2 2 2 2 2 3 3 3 3 4 5 5 6 6 5 5 6 7 8 7 7 7 8 8 8 8 8
12 11 10 9 8 7 7 6 5 5 5 4 3 3 2 2 2 2 2 2 2 2 3 3 3 4 4 5 5 5 5 5 6 6 7 8 8 8 8 8 9 9 10
13 12 10 10 8 7 7 7 6 5 5 4 4 3 2 2 2 1 1 1 2 2 3 3 3 4 4 5 5 5 5 5 6 5 6 6 7 7 7 7 8 8 9
14 12 11 11 10 9 8 7 7 6 5 5 4 3 3 2 2 2 1 1 1 2 2 3 4 4 4 5 5 5 5 6 6 5 5 5 5 6 6 7 7 8 8
15 14 12 11 11 10 9 8 8 7 6 5 5 4 3 3 2 2 2 2 2 2 2 3 4 4 5 5 6 6 6 6 6 6 6 6 6 7 7 7 8 8 9
16 14 13 12 11 11 10 9 9 8 7 7 6 5 4 3 3 3 2 1 2 2 2 3 3 4 5 6 6 6 6 6 7 7 7 7 7 7 8 8 8 9 10
17 15 14 13 12 11 11 10 9 9 8 7 7 6 5 4 3 3 2 2 2 2 3 3 3 4 4 5 5 6 7 7 7 8 8 8 8 8 9 9 9 10 11
18 16 15 15 14 12 12 11 11 10 10 9 8 7 6 5 4 3 3 3 3 3 3 4 4 5 5 6 6 7 7 8 8 9 9 9 9 10 10 10 10 11 11
18 18 17 16 15 14 13 13 12 11 11 10 9 8 7 6 5 5 4 4 4 4 5 5 5 5 6 7 8 8 8 9 10 10 10 11 11 11 11 11 12 12 12
19 19 18 17 16 15 14 13 13 12 11 10 10 9 8 7 6 5 5 5 6 6 6 6 7 7 8 8 9 9 10 11 11 12 12 12 12 13 13 13 13 13 13
19 19 19 18 17 16 15 14 13 13 12 11 11 10 8 8 7 6 7 7 8 8 9 9 9 9 9 10 11 11 12 12 12 13 13 14 14 14 15 15 15 15 15
20 20 19 18 18 17 16 15 14 13 12 12 12 11 10 9 8 8 8 9 10 10 11 11 12 11 12 12 13 14 14 15 15 15 16 16 17 17 17 17 17 17 17
19 19 19 18 18 17 16 15 15 14 13 13 13 12 11 11 10 10 10 11 12 12 13 13 13 14 14 15 15 16 17 18 18 18 19 19 20 20 20 20 20 20 20
19 19 19 18 17 17 16 16 16 15 14 14 14 14 13 12 12 13 13 14 14 15 15 16 16 17 18 18 19 20 20 21 21 22 22 22 23 23 23 23 23 23 23
18 18 19 19 18 17 16 17 17 16 16 15 15 15 15 15 15 16 16 17 17 18 18 18 19 20 21 21 22 23 24 24 24 25 25 25 25 25 25 25 26 26 26
18 18 18 18 18 17 17 17 17 17 17 17 17 17 18 18 19 19 19 19 20 21 21 22 22 23 24 25 26 26 26 27 27 27 27 27 28 28 28 29 29 29 29
18 18 17 17 17 17 17 17 18 19 18 19 19 20 21 22 22 22 22 22 23 24 25 25 26 26 26 28 28 29 29 30 30 29 30 30 30 31 31 31 31 31 31
18 18 17 17 16 17 18 18 19 20 20 21 22 23 24 24 24 24 25 26 26 27 28 29 29 29 29 30 31 32 32 32 32 32 32 32 33 33 33 33 33 33 33
16 17 17 17 18 18 19 20 21 21 22 23 23 24 25 26 26 27 27 28 30 30 31 31 31 31 31 33 33 33 34 34 34 35 35 35 35 35 35 36 36 36 36
17 17 17 18 19 19 20 21 21 21 22 24 25 26 27 28 29 29 30 31 32 33 33 34 33 34 35 36 36 36 36 37 36 37 38 38 39 38 38 38 38 38 38
17 17 17 18 18 19 20 21 22 23 24 25 26 28 29 30 31 32 33 34 35 36 37 37 37 37 38 38 39 39 39 40 40 40 41 41 41 41 42 42 41 41 41
18 18 18 19 20 21 22 23 24 25 26 27 28 29 31 32 33 34 35 36 37 38 38 39 40 41 42 42 42 42 43 43 43 42 44 44 44 44 44 44 44 44 44
20 21 22 22 23 23 24 25 26 27 28 30 31 32 33 34 35 36 37 38 39 40 41 43 43 44 44 44 45 45 46 46 46 45 46 47 46 46 46 46 47 47 47
22 23 24 25 25 26 27 28 29 30 30 32 33 34 36 36 38 39 40 41 41 42 44 45 46 46 46 47 48 48 49 49 49 48 48 50 49 50 49 48 49 49 49
Wind_Direction
234 236 239 239 241 232 222 214 199 202 200 195 212 219 231 262 262 259 279 275 277 274 275 286 294 293 292 295 290 286 284 288 278 281 285 282 284 285 283 276 273 272 273
235 237 240 240 239 232 227 223 214 208 206 203 210 225 246 264 275 272 279 295 291 283 283 290 299 305 304 305 303 296 292 292 282 279 284 284 279 281 281 278 271 270 271
232 235 237 237 237 232 228 228 226 219 217 218 219 227 238 261 271 274 278 295 297 293 297 302 308 315 318 315 314 304 302 299 293 285 281 282 281 281 280 278 273 270 270
233 234 233 235 235 234 230 228 228 227 222 221 221 223 239 254 265 271 283 298 310 310 308 310 318 319 321 326 330 326 319 317 309 300 291 283 280 281 281 280 276 273 273
233 233 234 237 236 236 230 224 226 229 225 224 229 237 249 260 269 261 271 294 316 327 327 328 332 331 335 344 345 343 338 332 330 322 314 306 294 286 283 283 282 281 282
233 234 237 238 236 236 233 230 229 230 230 230 232 239 245 247 253 257 265 281 306 316 326 341 353 352 353 352 351 349 346 342 342 342 335 326 318 309 298 292 286 287 287
232 233 234 234 234 237 240 237 232 229 227 226 229 233 241 243 248 246 256 275 304 312 320 330 334 341 346 347 348 351 351 353 351 347 344 339 333 327 313 305 299 295 293
228 231 231 233 234 236 237 239 237 231 230 229 231 232 236 241 239 239 249 273 288 298 321 332 334 338 342 345 347 347 344 345 345 342 340 339 334 328 324 318 310 304 300
227 230 229 231 231 233 235 235 236 231 231 230 233 236 231 228 228 233 252 274 283 293 304 320 329 334 339 338 339 339 338 338 337 335 334 333 331 328 323 321 317 313 308
227 231 230 231 232 233 233 234 235 234 232 231 232 234 227 224 231 237 256 270 284 292 300 309 315 321 326 329 326 327 329 330 330 330 330 329 327 325 323 319 317 315 312
227 230 231 233 233 233 234 233 235 234 230 229 230 231 229 230 234 240 251 262 274 285 295 299 304 311 315 319 320 321 322 323 323 323 324 324 323 321 320 319 316 314 312
228 230 230 232 232 233 233 234 235 233 229 227 227 230 233 239 245 251 257 264 273 282 289 294 297 301 305 308 310 312 313 316 317 318 318 317 316 315 313 312 311 309 307
228 227 226 229 231 232 232 232 233 228 228 226 225 229 234 242 252 261 267 271 275 282 287 290 294 296 297 301 304 306 307 309 311 312 312 312 311 310 308 307 306 305 303
225 225 226 229 231 233 233 229 226 226 228 229 230 234 240 246 254 265 274 278 282 286 286 288 291 291 292 295 298 301 302 303 304 304 306 306 306 304 303 303 302 302 300
221 223 224 228 231 233 230 226 225 228 233 232 234 236 244 249 257 265 274 281 286 288 286 286 287 288 290 293 295 297 298 298 298 299 300 301 301 299 298 298 297 297 296
220 222 223 226 228 228 228 229 230 233 235 235 236 242 247 253 261 268 273 279 285 288 288 287 287 288 290 292 293 294 295 295 295 295 296 297 297 296 295 294 293 293 293
218 220 222 224 225 227 230 232 233 235 237 239 241 245 251 257 263 269 274 279 283 286 288 288 288 289 290 292 293 293 293 294 295 295 292 292 293 292 292 292 291 291 290
218 222 225 226 227 229 232 234 235 237 239 243 245 249 256 261 265 269 274 278 282 284 287 288 289 288 289 291 292 293 292 292 292 293 292 291 290 290 290 289 288 288 288
223 226 226 228 230 232 236 238 238 240 244 249 253 257 261 265 268 271 274 277 281 284 286 287 288 288 288 290 291 292 292 292 292 291 290 290 289 289 288 287 287 286 285
226 228 228 231 236 239 240 242 244 246 251 255 259 262 265 269 271 274 276 279 281 284 286 287 287 288 288 289 290 290 291 292 292 291 290 289 289 288 287 287 287 286 286
228 231 233 236 242 244 247 249 251 254 256 259 262 265 268 271 272 275 278 280 282 284 286 286 286 287 288 289 289 288 289 290 291 290 290 289 288 287 286 286 286 286 285
234 236 240 243 246 248 251 253 255 259 262 264 266 268 271 274 276 277 279 281 282 284 285 286 286 286 287 288 289 289 289 289 289 289 289 289 288 287 286 285 284 284 284
240 243 247 249 252 256 257 258 261 264 266 268 271 272 272 275 276 278 280 281 283 284 285 285 286 287 288 288 289 290 290 290 290 289 289 288 288 287 286 285 285 284 282
247 248 251 254 256 259 261 263 265 267 270 271 274 275 276 278 279 280 280 281 283 284 285 285 286 287 287 288 289 289 290 290 290 289 289 288 287 286 286 285 285 283 282
252 253 255 257 258 260 263 266 269 271 272 274 276 278 279 280 281 282 282 283 283 284 284 285 286 287 286 287 288 288 288 288 287 287 287 287 287 286 286 285 284 282 281
255 256 258 260 261 263 266 269 271 273 275 276 278 279 280 280 281 282 283 284 284 284 284 285 285 286 286 286 287 288 288 288 287 287 287 287 287 286 284 284 283 282 281
Height
5886 5887 5888 5889 5889 5890 5891 5891 5892 5893 5893 5894 5895 5894 5895 5896 5896 5897 5897 5898 5899 5899 5900 5900 5900 5900 5901 5901 5901 5901 5902 5902 5902 5902 5903 5903 5903 5903 5904 5904 5904 5905 5905
5885 5886 5887 5888 5888 5889 5890 5890 5892 5892 5892 5894 5895 5895 5895 5895 5896 5897 5897 5898 5898 5899 5899 5899 5900 5900 5900 5900 5900 5900 5900 5901 5901 5901 5901 5902 5902 5902 5902 5903 5903 5903 5904
5883 5885 5886 5887 5888 5888 5889 5890 5891 5892 5893 5893 5894 5895 5895 5895 5896 5897 5897 5898 5898 5898 5899 5899 5899 5899 5899 5899 5899 5899 5899 5899 5899 5900 5900 5900 5900 5901 5901 5901 5901 5902 5902
5881 5883 5884 5886 5887 5888 5889 5890 5891 5892 5892 5893 5894 5894 5895 5895 5896 5896 5897 5897 5898 5898 5898 5899 5899 5899 5899 5899 5899 5898 5898 5898 5898 5898 5899 5899 5899 5899 5899 5899 5899 5899 5900
5879 5881 5883 5884 5886 5887 5888 5889 5890 5891 5892 5892 5893 5893 5894 5895 5895 5896 5897 5897 5898 5898 5898 5898 5899 5899 5899 5898 5898 5898 5898 5898 5897 5897 5897 5897 5897 5897 5897 5897 5897 5897 5897
5878 5880 5882 5883 5884 5886 5887 5888 5889 5890 5891 5892 5892 5893 5893 5894 5894 5895 5896 5897 5897 5898 5898 5898 5898 5898 5898 5898 5898 5897 5897 5897 5896 5896 5896 5896 5896 5895 5895 5895 5895 5895 5895
5876 5878 5880 5882 5883 5884 5885 5886 5887 5889 5890 5891 5892 5892 5893 5893 5894 5894 5895 5896 5897 5897 5898 5898 5898 5898 5898 5897 5897 5897 5897 5896 5896 5895 5895 5895 5894 5894 5894 5894 5894 5893 5893
5873 5876 5878 5880 5881 5883 5884 5885 5886 5888 5889 5890 5891 5891 5892 5893 5893 5894 5894 5895 5896 5896 5897 5897 5897 5897 5897 5897 5896 5896 5896 5895 5895 5895 5894 5894 5893 5893 5893 5892 5892 5891 5891
5871 5873 5876 5878 5879 5881 5882 5883 5885 5886 5887 5888 5889 5890 5891 5892 5892 5893 5893 5894 5895 5895 5896 5896 5896 5896 5896 5896 5895 5895 5895 5894 5894 5894 5893 5892 5892 5891 5891 5890 5890 5889 5889
5868 5871 5874 5876 5877 5879 5880 5881 5883 5884 5885 5886 5887 5888 5890 5890 5891 5892 5893 5893 5894 5894 5895 5895 5895 5895 5895 5895 5894 5894 5894 5893 5893 5892 5891 5891 5890 5890 5889 5888 5888 5887 5886
5865 5868 5871 5873 5875 5877 5878 5879 5881 5882 5883 5884 5886 5887 5888 5889 5890 5891 5891 5892 5892 5893 5893 5893 5893 5894 5894 5893 5893 5893 5892 5892 5891 5890 5890 5889 5888 5887 5887 5886 5885 5884 5883
5862 5865 5868 5870 5872 5874 5876 5877 5878 5880 5881 5882 5884 5885 5886 5887 5888 5889 5890 5890 5891 5891 5891 5892 5892 5892 5892 5892 5891 5891 5890 5890 5889 5888 5887 5887 5886 5885 5884 5883 5882 5882 5881
5859 5862 5865 5867 5869 5871 5873 5874 5876 5878 5879 5880 5882 5883 5884 5886 5886 5887 5888 5888 5889 5889 5889 5890 5889 5889 5889 5889 5889 5889 5888 5887 5886 5886 5885 5884 5883 5882 5881 5880 5879 5878 5877
5855 5858 5861 5864 5866 5868 5870 5872 5873 5875 5877 5878 5880 5881 5883 5884 5884 5885 5885 5886 5886 5886 5886 5887 5887 5887 5886 5886 5886 5886 5885 5884 5883 5882 5881 5880 5879 5878 5877 5876 5875 5874 5873
5852 5855 5858 5860 5863 5865 5867 5869 5871 5873 5874 5876 5878 5879 5880 5881 5882 5882 5883 5883 5883 5883 5883 5883 5883 5883 5883 5883 5882 5882 5881 5880 5879 5878 5878 5876 5875 5874 5873 5872 5871 5870 5869
5849 5852 5854 5857 5859 5862 5864 5866 5868 5870 5872 5873 5875 5876 5877 5878 5879 5879 5880 5880 5880 5880 5880 5880 5879 5879 5879 5878 5878 5877 5877 5876 5874 5874 5872 5871 5870 5869 5868 5866 5865 5864 5863
5846 5849 5851 5854 5856 5858 5860 5863 5865 5867 5869 5870 5872 5873 5874 5875 5875 5876 5876 5876 5876 5876 5876 5875 5875 5874 5874 5873 5873 5872 5871 5870 5869 5867 5866 5865 5864 5863 5862 5860 5859 5858 5857
5844 5846 5848 5851 5853 5855 5857 5859 5861 5863 5865 5867 5868 5869 5870 5870 5871 5871 5871 5872 5871 5871 5871 5870 5870 5869 5868 5867 5866 5865 5864 5863 5862 5861 5860 5858 5857 5856 5855 5853 5852 5851 5849
5841 5843 5846 5848 5850 5852 5854 5856 5858 5860 5861 5862 5864 5865 5865 5866 5866 5866 5866 5866 5866 5865 5865 5864 5863 5863 5862 5861 5860 5858 5857 5856 5854 5853 5852 5851 5849 5848 5846 5845 5844 5842 5841
5839 5841 5843 5845 5847 5849 5850 5852 5854 5855 5857 5858 5859 5860 5860 5860 5860 5860 5860 5860 5859 5859 5858 5857 5856 5855 5855 5853 5852 5851 5849 5848 5846 5845 5843 5842 5841 5839 5837 5836 5834 5833 5831
5835 5838 5840 5841 5843 5845 5846 5848 5849 5850 5851 5852 5853 5854 5854 5854 5854 5854 5854 5853 5853 5852 5851 5850 5849 5848 5846 5845 5843 5842 5841 5839 5838 5836 5834 5833 5832 5830 5828 5826 5825 5823 5822
5832 5834 5836 5837 5839 5840 5842 5843 5844 5845 5846 5847 5847 5847 5847 5847 5847 5847 5846 5846 5845 5844 5842 5841 5840 5839 5837 5835 5834 5832 5831 5829 5828 5827 5824 5823 5821 5819 5818 5816 5815 5813 5811
5829 5830 5832 5833 5835 5836 5837 5838 5839 5840 5840 5841 5840 5840 5840 5840 5840 5839 5838 5837 5836 5835 5833 5832 5831 5829 5827 5825 5823 5822 5820 5818 5817 5815 5813 5812 5809 5807 5805 5804 5803 5801 5799
5825 5826 5828 5829 5830 5831 5832 5832 5833 5833 5834 5834 5833 5833 5832 5831 5831 5830 5829 5828 5827 5825 5823 5822 5821 5819 5817 5815 5812 5811 5809 5807 5805 5803 5800 5798 5797 5795 5793 5791 5789 5788 5786
5820 5821 5822 5823 5824 5825 5825 5826 5826 5826 5826 5826 5825 5824 5824 5823 5822 5820 5819 5818 5817 5816 5813 5811 5810 5808 5805 5803 5800 5798 5796 5794 5793 5791 5787 5784 5783 5781 5780 5778 5775 5773 5771
5814 5815 5816 5817 5817 5818 5818 5818 5818 5818 5818 5817 5816 5815 5814 5813 5812 5810 5809 5807 5806 5804 5801 5800 5798 5796 5793 5790 5787 5785 5782 5780 5778 5777 5774 5770 5768 5766 5765 5763 5760 5758 5755